FW9125 Weather Reports


time (UTC)temp
F
wind
direction
speed
knots
gust
knots
rain 1hr
in
rain 24hr
in
rain mn
in
humidity
%
barometer
mb
20260510091834 68 279 7.8 14.8 0.00 0.57 0.00 70 1012.4
20260510091334 67 274 7.8 14.8 0.00 0.57 0.00 71 1012.3
20260510090903 67 264 9.6 14.8 0.00 0.57 0.00 70 1012.4
20260510090453 67 282 6.1 14.8 0.00 0.57 0.00 71 1012.3
20260510085858 67 302 7.8 11.3 0.00 0.57 0.00 70 1012.4
20260510085331 67 238 5.2 12.2 0.00 0.57 0.00 71 1012.3
20260510084851 67 272 6.1 12.2 0.00 0.57 0.00 71 1012.4
20260510084440 67 303 5.2 9.6 0.00 0.57 0.00 73 1012.3
20260510083848 66 249 5.2 9.6 0.00 0.57 0.00 74 1012.3
20260510083435 66 269 5.2 9.6 0.00 0.57 0.00 75 1012.4
20260510082840 66 270 7.0 9.6 0.00 0.57 0.00 74 1012.4
20260510082429 65 256 6.1 9.6 0.00 0.57 0.00 75 1012.3
20260510081832 65 249 4.3 11.3 0.00 0.57 0.00 75 1012.4
20260510081458 65 276 7.8 11.3 0.00 0.57 0.00 75 1012.4
20260510080831 65 268 3.5 15.6 0.00 0.57 0.00 76 1012.3
20260510080608 64 251 9.6 13.9 0.00 0.57 0.00 76 1012.2
20260510080529 64 249 6.1 15.6 0.00 0.57 0.00 76 1012.3
20260510075955 64 269 7.8 13.9 0.00 0.57 0.00 76 1012.2
20260510075237 64 309 9.6 15.6 0.00 0.57 0.00 77 1012.2
20260510074914 64 276 6.1 14.8 0.00 0.57 0.00 77 1012.2
20260510073831 64 284 7.8 15.6 0.00 0.57 0.00 77 1012.2
20260510073405 64 276 8.7 13.0 0.00 0.57 0.00 77 1012.3
20260510073127 63 273 7.8 13.0 0.00 0.57 0.00 78 1012.2
20260510072359 63 264 8.7 13.0 0.00 0.57 0.00 77 1012.2
20260510071835 63 271 9.6 13.0 0.00 0.57 0.00 77 1012.3
20260510071809 62 233 5.2 7.8 0.00 0.57 0.00 79 1012.3
20260510071433 63 240 7.8 12.2 0.00 0.57 0.00 77 1012.2
20260510071032 63 243 7.8 10.4 0.00 0.57 0.00 77 1012.3
20260510070601 62 269 5.2 10.4 0.00 0.57 0.00 78 1012.3
20260510065447 62 276 7.0 8.7 0.00 0.57 0.00 79 1012.2
20260510065405 62 266 4.3 8.7 0.00 0.57 0.00 79 1012.3
20260510065033 62 266 6.1 8.7 0.00 0.57 0.00 79 1012.2
20260510063929 62 271 5.2 7.0 0.00 0.57 0.00 79 1012.1
20260510063331 62 269 4.3 6.1 0.00 0.57 0.00 79 1012.2
20260510063106 62 271 3.5 7.8 0.00 0.57 0.00 79 1012.1
20260510063029 62 243 3.5 6.1 0.00 0.57 0.00 79 1012.1
20260510062043 61 270 3.5 6.1 0.00 0.57 0.00 80 1012.1
20260510061935 61 265 4.3 8.7 0.00 0.57 0.00 79 1012.1
20260510061540 61 290 5.2 8.7 0.00 0.57 0.00 79 1012.0
20260510061211 61 274 4.3 7.8 0.00 0.57 0.00 79 1012.1
20260510060532 61 277 4.3 7.8 0.00 0.57 0.00 79 1012.1
20260510055332 61 269 5.2 6.1 0.00 0.57 0.00 80 1012.1
20260510054905 61 297 3.5 6.1 0.00 0.57 0.00 81 1012.0
20260510054339 60 269 4.3 6.1 0.00 0.57 0.00 81 1012.0
20260510053859 60 265 4.3 6.1 0.00 0.57 0.00 81 1012.0
20260510053450 60 273 4.3 7.0 0.00 0.57 0.00 82 1012.0
20260510053146 60 245 5.2 7.8 0.00 0.57 0.00 84 1012.0
20260510053020 60 270 4.3 7.0 0.00 0.57 0.00 83 1011.9
20260510052006 59 265 7.8 13.0 0.00 0.58 0.00 86 1011.9
20260510051932 60 257 5.2 12.2 0.00 0.58 0.00 85 1012.0
20260510051602 59 266 7.8 13.0 0.00 0.58 0.00 86 1012.0
20260510050432 59 206 7.0 10.4 0.00 0.58 0.00 86 1011.9
20260510045831 60 220 6.1 9.6 0.00 0.58 0.00 85 1011.9
20260510045613 60 274 1.7 8.7 0.00 0.58 0.00 84 1011.8
20260510045534 60 257 6.1 8.7 0.00 0.58 0.00 86 1011.9
20260510044424 59 243 4.3 8.7 0.00 0.58 0.00 86 1011.9
20260510043831 59 239 2.6 5.2 0.00 0.58 0.00 85 1012.0
20260510043333 59 247 3.5 5.2 0.00 0.58 0.00 85 1011.9
20260510042832 59 263 1.7 4.3 0.00 0.58 0.00 85 1011.9
20260510042412 59 248 2.6 4.3 0.00 0.58 0.00 84 1011.9
20260510042128 59 263 2.6 7.0 0.00 0.58 0.00 84 1012.0
20260510041407 60 274 4.3 7.0 0.00 0.58 0.00 83 1012.0
20260510040940 60 290 3.5 6.1 0.00 0.58 0.00 83 1011.9
20260510040935 60 285 3.5 6.1 0.00 0.58 0.00 83 1012.0
20260510040910 59 243 4.3 7.0 0.00 0.58 0.00 84 1012.0
20260510040530 59 221 3.5 6.1 0.00 0.58 0.00 84 1012.0
20260510040118 60 259 3.5 5.2 0.00 0.58 0.00 83 1012.0
20260510034356 60 291 3.5 6.1 0.00 0.58 0.00 84 1012.0
20260510033952 60 288 4.3 7.0 0.00 0.58 0.00 84 1011.9
20260510033331 60 285 4.3 7.0 0.00 0.58 0.00 84 1012.0
20260510032942 60 281 3.5 6.1 0.00 0.58 0.00 84 1012.0
20260510032332 59 252 3.5 7.0 0.00 0.58 0.00 84 1012.0
20260510032231 59 300 3.5 7.8 0.00 0.58 0.00 84 1012.1
20260510031339 60 295 5.2 7.8 0.00 0.58 0.00 84 1012.1
20260510031019 59 312 5.2 7.0 0.00 0.58 0.00 85 1012.3
20260510030950 60 316 5.2 9.6 0.00 0.58 0.00 84 1012.0
20260510030612 59 302 5.2 9.6 0.00 0.58 0.00 84 1012.1
20260510030132 59 332 4.3 7.8 0.00 0.58 0.00 84 1012.1
20260510025501 59 290 5.2 7.0 0.00 0.58 0.00 84 1012.2
20260510024623 59 305 3.5 6.1 0.00 0.58 0.00 85 1012.3
20260510023915 59 300 1.7 6.1 0.00 0.58 0.00 85 1012.4
20260510023348 59 307 2.6 6.1 0.00 0.58 0.00 85 1012.4
20260510022911 59 321 2.6 7.8 0.00 0.58 0.00 85 1012.4
20260510022331 60 306 5.2 7.8 0.00 0.58 0.00 85 1012.4
20260510021904 59 291 4.3 6.1 0.00 0.58 0.00 85 1012.4
20260510021451 59 322 4.3 6.1 0.00 0.58 0.00 85 1012.4
20260510020857 59 271 4.3 6.1 0.00 0.58 0.00 85 1012.2
20260510020447 59 300 3.5 5.2 0.00 0.58 0.00 85 1012.2
20260510015832 59 285 3.5 5.2 0.00 0.58 0.00 86 1012.2
20260510015435 58 274 1.7 4.3 0.00 0.58 0.00 88 1012.2
20260510014831 58 263 0.9 2.6 0.00 0.58 0.00 88 1012.3
20260510014430 59 288 1.7 2.6 0.00 0.58 0.00 88 1012.3
20260510013840 59 309 0.0 0.9 0.00 0.58 0.00 87 1012.1
20260510013413 59 309 0.0 1.7 0.00 0.58 0.00 88 1012.1
20260510012830 59 309 0.0 1.7 0.00 0.58 0.00 87 1012.2
20260510012327 59 335 1.7 1.7 0.00 0.58 0.00 88 1012.1
20260510011823 59 75 0.0 0.0 0.00 0.58 0.00 88 1012.2
20260510011405 59 75 0.0 0.0 0.00 0.58 0.00 88 1012.2
20260510010816 59 75 0.0 0.0 0.00 0.58 0.00 88 1012.2
20260510010408 59 75 0.0 0.0 0.00 0.58 0.00 88 1012.3
20260510005813 59 75 0.0 0.9 0.00 0.58 0.00 88 1012.3
20260510005350 59 75 0.0 0.9 0.00 0.58 0.00 87 1012.3
20260510004812 59 73 0.0 0.0 0.00 0.58 0.00 87 1012.5
20260510004342 60 73 0.0 3.5 0.00 0.58 0.00 87 1012.5
20260510003931 60 73 1.7 3.5 0.00 0.58 0.00 87 1012.5
20260510003443 60 309 1.7 7.0 0.00 0.58 0.00 87 1012.9
20260510003357 60 193 0.9 2.6 0.00 0.58 0.00 87 1012.6
20260510002954 59 262 0.9 3.5 0.00 0.58 0.00 87 1012.7
20260510002502 60 116 1.7 3.5 0.00 0.58 0.00 87 1012.6
20260510002013 60 292 0.0 4.3 0.00 0.58 0.00 87 1012.8
20260510001211 60 338 3.5 7.0 0.00 0.58 0.00 87 1013.0
20260510000525 60 321 4.3 6.1 0.00 0.58 0.00 88 1013.2
20260510000334 60 304 4.3 7.0 0.00 0.58 0.00 88 1012.9
20260509235941 60 331 4.3 7.0 0.00 0.58 0.00 88 1012.9
20260509235349 60 313 5.2 7.0 0.00 0.58 0.00 88 1013.0
20260509234743 60 300 1.7 5.2 0.00 0.58 0.00 87 1013.2
20260509234739 60 326 4.3 7.8 0.00 0.58 0.00 88 1013.2
20260509234722 60 340 4.3 7.0 0.00 0.58 0.00 87 1013.3
20260509234718 60 302 3.5 5.2 0.00 0.58 0.00 87 1013.2
20260509234607 60 311 4.3 7.0 0.00 0.58 0.00 88 1013.2
20260509233503 60 355 3.5 6.1 0.00 0.58 0.00 87 1013.2
20260509233336 60 339 5.2 7.8 0.00 0.58 0.00 88 1013.2
20260509232931 60 321 4.3 7.8 0.00 0.58 0.00 87 1013.3
20260509232439 60 321 5.2 7.8 0.00 0.58 0.00 87 1013.3
20260509225936 60 321 3.5 7.8 0.00 0.58 0.00 88 1013.3
20260509225911 60 321 3.5 6.1 0.00 0.58 0.00 88 1013.2
20260509225512 60 336 4.3 7.0 0.00 0.58 0.00 88 1013.2
20260509224417 60 311 3.5 7.8 0.00 0.58 0.00 88 1013.3
20260509223812 60 304 3.5 5.2 0.00 0.58 0.00 88 1013.2
20260509223412 60 334 3.5 7.0 0.00 0.58 0.00 88 1013.2
20260509222858 60 346 3.5 7.0 0.00 0.58 0.00 88 1013.3
20260509222348 60 305 4.3 7.8 0.00 0.58 0.00 88 1013.4
20260509222214 60 309 3.5 4.3 0.00 0.58 0.00 88 1013.3
20260509221848 60 319 4.3 7.8 0.00 0.58 0.00 88 1013.3
20260509221141 60 312 2.6 4.3 0.00 0.58 0.00 88 1013.4
20260509220811 60 295 2.6 4.3 0.00 0.00 0.00 88 1013.4
20260509215821 60 325 2.6 5.2 0.00 0.58 0.58 88 1013.3
20260509215342 60 311 2.6 5.2 0.00 0.58 0.58 87 1013.3
20260509214806 60 328 2.6 4.3 0.00 0.58 0.58 87 1013.3
20260509214338 60 294 3.5 4.3 0.00 0.58 0.58 88 1013.3
20260509213804 59 307 1.7 3.5 0.00 0.58 0.58 89 1013.4
20260509213407 59 309 1.7 2.6 0.00 0.58 0.58 89 1013.3
20260509213038 59 311 1.7 3.5 0.00 0.58 0.58 89 1013.4
20260509212439 59 343 0.9 2.6 0.00 0.58 0.58 90 1013.3
20260509212435 59 333 1.7 2.6 0.00 0.58 0.58 90 1013.4
20260509212348 59 313 1.7 3.5 0.00 0.58 0.58 89 1013.3
20260509212018 59 355 1.7 2.6 0.00 0.58 0.58 90 1013.2
20260509210422 59 348 0.0 0.0 0.00 0.58 0.58 91 1013.4
20260509205307 59 53 0.0 0.0 0.00 0.58 0.58 91 1013.2
20260509204915 59 53 0.0 0.0 0.00 0.58 0.58 91 1013.1
20260509204858 59 53 0.0 0.0 0.00 0.58 0.58 91 1013.1
20260509203759 59 53 0.0 0.0 0.00 0.58 0.58 91 1012.9
20260509203658 59 53 0.0 0.0 0.00 0.58 0.58 91 1012.8
20260509203411 59 53 0.0 0.0 0.00 0.58 0.58 91 1012.8
20260509202420 59 53 0.0 0.0 0.00 0.58 0.58 92 1012.7
20260509201848 59 53 0.0 0.0 0.00 0.58 0.58 92 1012.6
20260509201836 59 53 0.0 0.0 0.00 0.58 0.58 92 1012.5
20260509200817 59 53 0.0 0.9 0.00 0.58 0.58 92 1012.5
20260509200258 59 53 0.0 2.6 0.00 0.58 0.58 92 1012.3
20260509200146 59 27 0.9 4.3 0.00 0.58 0.58 92 1012.3
20260509200142 59 13 3.5 4.3 0.00 0.58 0.58 91 1012.1
20260509195930 59 53 1.7 2.6 0.00 0.58 0.58 92 1012.2
20260509195600 59 39 1.7 2.6 0.00 0.58 0.58 92 1012.3
20260509194458 59 25 2.6 4.3 0.00 0.58 0.58 91 1012.2
20260509193344 59 32 1.7 2.6 0.00 0.58 0.58 92 1012.0
20260509192758 59 19 0.9 1.7 0.00 0.58 0.58 93 1012.0
20260509192637 59 74 0.9 1.7 0.00 0.58 0.58 93 1011.9
20260509191759 59 78 0.0 0.9 0.00 0.58 0.58 94 1011.9
20260509191419 59 48 0.9 3.5 0.01 0.58 0.58 93 1011.6
20260509191350 59 78 0.0 3.5 0.01 0.58 0.58 93 1011.7
20260509190259 59 46 2.6 4.3 0.01 0.58 0.58 93 1011.4
20260509185914 58 52 2.6 6.1 0.01 0.57 0.58 93 1011.3
20260509185316 58 53 2.6 6.1 0.01 0.57 0.58 94 1011.3
20260509184907 58 7 2.6 5.2 0.01 0.57 0.58 93 1011.1
20260509184312 58 45 3.5 5.2 0.01 0.57 0.58 94 1011.0
20260509183809 58 44 1.7 3.5 0.01 0.57 0.58 94 1010.9
20260509183305 58 59 1.7 3.5 0.01 0.57 0.58 95 1010.9
20260509182758 58 27 0.9 3.5 0.01 0.57 0.58 94 1010.9
20260509182306 59 259 0.0 0.0 0.01 0.57 0.58 95 1010.9
20260509181844 59 259 0.0 0.0 0.01 0.57 0.58 95 1010.8
20260509181300 59 259 0.0 0.9 0.00 0.57 0.57 95 1010.8
20260509180843 59 259 0.0 1.7 0.01 0.57 0.57 95 1010.8
20260509180258 59 257 1.7 3.5 0.02 0.57 0.57 95 1010.6
20260509175836 59 291 1.7 3.5 0.02 0.56 0.57 95 1010.6
20260509175419 59 269 1.7 3.5 0.03 0.56 0.57 95 1010.6
20260509174855 59 306 0.0 2.6 0.06 0.56 0.57 94 1010.5
20260509174411 59 27 0.9 5.2 0.07 0.56 0.57 94 1010.5
20260509173819 58 30 2.6 12.2 0.09 0.56 0.57 93 1010.4
20260509173405 58 63 8.7 14.8 0.12 0.56 0.57 93 1010.2
20260509172757 58 46 7.8 14.8 0.14 0.56 0.57 93 1010.1
20260509172359 58 42 8.7 11.3 0.17 0.56 0.57 94 1010.2
20260509171810 58 53 7.0 11.3 0.20 0.56 0.57 94 1010.5
20260509171354 58 60 6.1 10.4 0.22 0.56 0.57 94 1010.5
20260509170803 58 69 7.0 10.4 0.24 0.56 0.57 94 1010.5
20260509170258 58 52 7.0 9.6 0.27 0.56 0.56 94 1010.5
20260509165757 58 62 7.0 9.6 0.30 0.27 0.55 94 1010.9
20260509165257 58 51 6.1 10.4 0.32 0.27 0.54 94 1011.2
20260509164820 58 51 7.0 10.4 0.32 0.27 0.52 94 1011.6
20260509164339 58 56 7.8 10.4 0.33 0.27 0.50 94 1011.9
20260509163756 58 54 4.3 7.0 0.31 0.27 0.47 94 1012.1
20260509163335 58 53 2.6 4.3 0.30 0.27 0.45 94 1012.3
20260509162756 59 46 2.6 3.5 0.28 0.27 0.43 93 1012.4
20260509162332 59 37 2.6 3.5 0.27 0.27 0.40 93 1012.6
20260509161919 59 60 1.7 2.6 0.24 0.27 0.38 93 1012.8
20260509161524 59 55 1.7 5.2 0.20 0.27 0.31 91 1013.1
20260509161451 59 72 1.7 3.5 0.22 0.27 0.35 92 1013.1
20260509160341 59 55 4.3 5.2 0.17 0.27 0.28 91 1013.1
20260509155908 60 44 3.5 4.3 0.14 0.12 0.24 89 1013.2
20260509155258 60 60 0.9 5.2 0.12 0.12 0.21 88 1013.4
20260509154909 60 109 2.6 7.0 0.11 0.12 0.20 88 1013.5
20260509154308 61 103 3.5 9.6 0.11 0.12 0.17 87 1013.2
20260509153857 61 92 4.3 13.0 0.11 0.12 0.16 85 1012.6
20260509153305 61 87 7.8 13.0 0.11 0.12 0.15 85 1012.1
20260509152834 61 82 11.3 20.9 0.09 0.12 0.13 90 1011.2
20260509152818 61 77 7.8 13.0 0.10 0.12 0.15 86 1012.1
20260509152400 61 96 8.7 14.8 0.09 0.12 0.14 86 1012.1
20260509152028 61 74 11.3 15.6 0.09 0.12 0.13 88 1011.8
20260509150840 61 49 16.5 22.6 0.10 0.12 0.13 91 1010.3
20260509150307 61 72 16.5 22.6 0.10 0.12 0.12 91 1009.4
20260509145840 61 69 15.6 20.0 0.10 0.02 0.11 91 1009.2
20260509145257 61 79 11.3 18.2 0.09 0.02 0.10 91 1009.8
20260509144835 61 62 13.9 19.1 0.08 0.02 0.08 90 1010.1
20260509144257 62 56 13.9 19.1 0.06 0.02 0.06 89 1010.2
20260509144128 62 62 13.9 18.2 0.05 0.02 0.06 89 1010.6
20260509143418 62 68 13.0 16.5 0.04 0.02 0.05 88 1011.0
20260509142824 62 76 12.2 18.2 0.04 0.02 0.05 87 1011.5
20260509142412 62 55 13.9 18.2 0.04 0.02 0.05 86 1012.2
20260509141757 63 86 10.4 17.4 0.03 0.02 0.04 86 1012.7
20260509141718 64 91 11.3 15.6 0.02 0.02 0.02 84 1013.2
20260509141541 63 105 11.3 16.5 0.03 0.02 0.03 86 1013.0
20260509140400 64 105 9.6 14.8 0.01 0.02 0.02 83 1013.2
20260509135805 65 86 9.6 13.0 0.00 0.01 0.01 82 1013.1
20260509135403 65 91 8.7 14.8 0.00 0.01 0.01 80 1013.2
20260509135347 65 103 7.0 13.0 0.00 0.01 0.01 81 1013.2
20260509134257 65 103 9.6 14.8 0.00 0.01 0.01 78 1013.1
20260509133756 65 84 7.8 13.0 0.00 0.01 0.01 77 1012.9
20260509133343 65 80 5.2 8.7 0.00 0.01 0.01 76 1012.8
20260509132757 65 70 1.7 12.2 0.00 0.01 0.01 76 1012.7
20260509132339 65 77 4.3 13.9 0.00 0.01 0.01 77 1012.3
20260509131757 65 38 10.4 20.0 0.00 0.01 0.01 78 1012.0
20260509131341 65 70 13.9 20.0 0.00 0.01 0.01 78 1011.6
20260509130757 65 58 13.0 20.0 0.00 0.01 0.01 79 1011.3
20260509130542 65 63 13.9 19.1 0.00 0.01 0.01 82 1011.8
20260509130442 65 61 14.8 19.1 0.00 0.01 0.01 80 1011.3
20260509125909 65 71 13.9 19.1 0.00 0.01 0.01 82 1011.5
20260509124916 65 80 11.3 19.1 0.00 0.01 0.01 80 1011.8
20260509124257 65 70 12.2 19.1 0.00 0.01 0.01 78 1011.7
20260509123910 65 67 11.3 19.1 0.00 0.01 0.01 76 1011.8
20260509123312 65 63 13.0 17.4 0.00 0.01 0.01 76 1011.8
20260509122905 65 72 11.3 16.5 0.00 0.01 0.01 79 1011.9
20260509122714 65 65 13.0 15.6 0.00 0.01 0.01 81 1012.3
20260509122345 65 45 10.4 15.6 0.00 0.01 0.01 81 1012.1
20260509121310 65 39 11.3 15.6 0.00 0.01 0.01 81 1012.6
20260509120757 65 79 11.3 15.6 0.00 0.01 0.01 81 1013.0
20260509120316 65 68 13.0 15.6 0.00 0.01 0.01 80 1013.1
20260509115847 65 87 12.2 14.8 0.00 0.01 0.01 79 1013.2
20260509115255 65 63 11.3 16.5 0.00 0.01 0.01 80 1013.3
20260509114842 65 51 11.3 16.5 0.00 0.01 0.01 81 1013.5
20260509114333 65 70 9.6 17.4 0.00 0.01 0.01 80 1013.8
20260509114313 65 79 10.4 14.8 0.00 0.01 0.01 80 1013.7
20260509113255 65 75 13.0 18.2 0.00 0.01 0.01 81 1013.8
20260509112834 65 67 10.4 18.2 0.00 0.01 0.01 81 1013.8
20260509112255 65 99 13.0 17.4 0.00 0.01 0.01 81 1013.9
20260509111834 65 86 10.4 14.8 0.00 0.01 0.01 81 1014.0
20260509111255 65 111 9.6 16.5 0.00 0.01 0.01 82 1014.0
20260509110756 65 74 8.7 19.1 0.00 0.01 0.01 83 1013.8
20260509110431 65 117 14.8 19.1 0.00 0.01 0.01 82 1013.8
20260509105821 65 76 14.8 18.2 0.00 0.01 0.01 83 1013.7
20260509105410 65 70 13.0 16.5 0.00 0.01 0.01 83 1013.8
20260509104815 65 103 10.4 16.5 0.00 0.01 0.01 84 1013.8
20260509104309 65 89 13.0 16.5 0.00 0.01 0.01 83 1013.8
20260509103839 65 94 11.3 15.6 0.00 0.01 0.01 83 1013.8
20260509103255 65 84 10.4 14.8 0.00 0.01 0.01 83 1014.0
20260509102802 66 76 9.6 15.6 0.00 0.01 0.01 82 1014.0
20260509102352 65 89 11.3 15.6 0.00 0.01 0.01 82 1014.0
20260509102051 65 116 12.2 15.6 0.00 0.01 0.01 81 1014.0
20260509101346 65 96 10.4 14.8 0.00 0.01 0.01 81 1013.9
20260509100849 65 89 12.2 18.2 0.00 0.01 0.01 83 1013.8
20260509100828 65 84 10.4 17.4 0.00 0.01 0.01 82 1013.7
20260509100538 65 81 13.0 18.2 0.00 0.01 0.01 83 1013.8
20260509095554 65 94 13.0 18.2 0.00 0.01 0.01 82 1013.7
20260509095456 65 92 13.9 18.2 0.00 0.01 0.01 82 1013.8
20260509094336 65 77 13.0 16.5 0.00 0.01 0.01 80 1013.6
20260509093805 66 87 11.3 17.4 0.00 0.01 0.01 81 1013.5
20260509093256 65 91 13.0 17.4 0.00 0.01 0.01 80 1013.3
20260509093146 66 113 12.2 17.4 0.00 0.01 0.01 82 1013.4
20260509092858 66 97 10.4 16.5 0.00 0.01 0.01 81 1013.4
20260509092038 65 97 12.2 16.5 0.00 0.01 0.01 81 1013.3
20260509091958 66 65 11.3 17.4 0.00 0.01 0.01 81 1013.3